FW8858 Weather Reports


time (UTC)temp
C
wind
direction
speed
KPH
gust
KPH
rain 1hr
cm
rain 24hr
cm
rain mn
cm
humidity
%
barometer
mb
20260506143043 18 99 3.2 11.3 0.00 0.00 0.00 74 1008.6
20260506142523 18 311 3.2 6.4 0.00 0.00 0.00 74 1008.7
20260506142023 17 263 1.6 4.8 0.00 0.00 0.00 75 1008.7
20260506141535 17 300 1.6 4.8 0.00 0.00 0.00 75 1008.9
20260506141027 17 277 1.6 11.3 0.00 0.00 0.00 75 1008.9
20260506140525 17 279 3.2 16.1 0.00 0.00 0.00 75 1008.7
20260506140035 17 206 1.6 16.1 0.00 0.00 0.00 75 1008.6
20260506135523 17 86 1.6 12.9 0.00 0.00 0.00 76 1008.8
20260506135024 17 146 3.2 12.9 0.00 0.00 0.00 76 1008.6
20260506134544 17 126 3.2 14.5 0.00 0.00 0.00 76 1008.6
20260506134119 17 277 3.2 14.5 0.00 0.00 0.00 77 1008.4
20260506133525 17 67 1.6 16.1 0.00 0.00 0.00 77 1008.6
20260506133041 17 106 3.2 16.1 0.00 0.00 0.00 77 1008.5
20260506132528 17 134 1.6 11.3 0.00 0.00 0.00 77 1008.5
20260506132024 17 280 3.2 11.3 0.00 0.00 0.00 77 1008.6
20260506131548 17 109 3.2 11.3 0.00 0.00 0.00 77 1008.2
20260506131024 16 208 1.6 8.0 0.00 0.00 0.00 78 1008.5
20260506130524 16 113 3.2 8.0 0.00 0.00 0.00 78 1008.4
20260506130054 16 104 1.6 9.7 0.00 0.00 0.00 78 1008.5
20260506125526 16 168 3.2 9.7 0.00 0.00 0.00 79 1008.6
20260506125029 16 180 1.6 8.0 0.00 0.00 0.00 79 1008.7
20260506124535 16 202 1.6 9.7 0.00 0.00 0.00 79 1008.7
20260506124024 16 246 1.6 11.3 0.00 0.00 0.00 78 1008.7
20260506123525 16 115 3.2 11.3 0.00 0.00 0.00 79 1008.6
20260506123043 16 117 3.2 8.0 0.00 0.00 0.00 79 1008.6
20260506122525 16 189 1.6 9.7 0.00 0.00 0.00 78 1008.7
20260506122024 16 113 3.2 11.3 0.00 0.00 0.00 78 1008.9
20260506121541 16 165 3.2 11.3 0.00 0.00 0.00 78 1008.9
20260506121024 16 174 1.6 11.3 0.00 0.00 0.00 78 1009.1
20260506120527 16 166 3.2 11.3 0.00 0.00 0.00 79 1009.0
20260506120042 16 173 3.2 11.3 0.00 0.00 0.00 79 1009.0
20260506115526 16 171 3.2 11.3 0.00 0.00 0.00 79 1009.0
20260506115024 16 86 1.6 11.3 0.00 0.00 0.00 80 1008.9
20260506114538 16 262 3.2 12.9 0.00 0.00 0.00 80 1008.9
20260506114024 16 146 1.6 12.9 0.00 0.00 0.00 80 1008.9
20260506113525 16 158 3.2 12.9 0.00 0.00 0.00 80 1008.7
20260506113052 16 180 1.6 17.7 0.00 0.00 0.00 80 1008.7
20260506112525 16 332 4.8 17.7 0.00 0.00 0.00 80 1008.8
20260506112024 16 115 3.2 11.3 0.00 0.00 0.00 80 1008.8
20260506111542 16 119 3.2 14.5 0.00 0.00 0.00 81 1008.7
20260506111024 16 270 3.2 14.5 0.00 0.00 0.00 81 1008.9
20260506110526 16 221 4.8 17.7 0.00 0.00 0.00 81 1009.0
20260506110051 15 169 3.2 17.7 0.00 0.00 0.00 81 1008.9
20260506105524 15 146 0.0 12.9 0.00 0.00 0.00 81 1008.9
20260506105026 15 269 4.8 19.3 0.00 0.00 0.00 81 1008.9
20260506104544 15 160 3.2 19.3 0.00 0.00 0.00 81 1008.9
20260506104024 15 257 3.2 11.3 0.00 0.00 0.00 82 1009.0
20260506103524 15 196 4.8 11.3 0.00 0.00 0.00 82 1008.9
20260506103047 15 207 3.2 17.7 0.00 0.00 0.00 82 1008.8
20260506102524 15 205 1.6 17.7 0.00 0.00 0.00 83 1008.7
20260506102025 15 87 3.2 16.1 0.00 0.00 0.00 83 1008.6
20260506101552 15 98 3.2 12.9 0.00 0.00 0.00 83 1008.6
20260506101024 15 117 3.2 12.9 0.00 0.00 0.00 84 1008.8
20260506100525 14 294 1.6 11.3 0.00 0.00 0.00 84 1008.9
20260506100101 14 155 3.2 11.3 0.00 0.00 0.00 84 1008.8
20260506095525 14 100 1.6 11.3 0.00 0.00 0.00 84 1008.7
20260506095026 14 86 1.6 9.7 0.00 0.00 0.00 84 1008.8
20260506094539 14 95 1.6 9.7 0.00 0.00 0.00 83 1008.7
20260506094026 14 130 3.2 8.0 0.00 0.00 0.00 83 1008.6
20260506093523 14 90 1.6 6.4 0.00 0.00 0.00 83 1008.6
20260506093044 14 119 1.6 6.4 0.00 0.00 0.00 82 1008.6
20260506092523 14 114 3.2 6.4 0.00 0.00 0.00 82 1008.7
20260506092029 14 101 1.6 6.4 0.00 0.00 0.00 82 1008.7
20260506091545 15 82 1.6 6.4 0.00 0.00 0.00 81 1008.6
20260506091028 15 111 1.6 12.9 0.00 0.00 0.00 81 1008.7
20260506090522 15 112 1.6 12.9 0.00 0.00 0.00 81 1008.7
20260506090035 15 84 1.6 6.4 0.00 0.00 0.00 80 1008.7
20260506085526 15 215 1.6 6.4 0.00 0.00 0.00 80 1008.8
20260506085026 15 228 3.2 6.4 0.00 0.00 0.00 80 1008.8
20260506084604 15 117 3.2 6.4 0.00 0.00 0.00 80 1008.9
20260506084023 15 96 1.6 8.0 0.00 0.00 0.00 80 1008.8
20260506083523 15 92 1.6 11.3 0.00 0.00 0.00 80 1008.9
20260506083041 15 83 1.6 11.3 0.00 0.00 0.00 80 1008.9
20260506082526 15 85 1.6 4.8 0.00 0.00 0.00 79 1009.0
20260506082028 15 86 1.6 11.3 0.00 0.00 0.00 78 1008.9
20260506081541 15 91 3.2 17.7 0.00 0.00 0.00 78 1009.0
20260506081023 15 91 1.6 17.7 0.00 0.00 0.00 77 1009.0
20260506080523 15 85 3.2 11.3 0.00 0.00 0.00 77 1009.0
20260506073524 16 141 3.2 9.7 0.00 0.00 0.00 74 1008.8
20260506073047 16 108 1.6 11.3 0.00 0.00 0.00 74 1009.0
20260506072523 16 352 0.0 11.3 0.00 0.00 0.00 73 1009.0
20260506072022 16 352 3.2 11.3 0.00 0.00 0.00 73 1009.0
20260506071539 16 165 1.6 6.4 0.00 0.00 0.00 72 1009.0
20260506071023 16 296 1.6 8.0 0.00 0.00 0.00 72 1009.0
20260506070526 16 151 1.6 8.0 0.00 0.00 0.00 72 1009.0
20260506062024 17 99 1.6 12.9 0.00 0.00 0.00 68 1009.0
20260506061542 17 204 3.2 11.3 0.00 0.00 0.00 67 1008.9
20260506061028 17 138 3.2 6.4 0.00 0.00 0.00 67 1008.9
20260506060525 17 186 1.6 16.1 0.00 0.00 0.00 67 1008.9
20260506051026 18 352 3.2 11.3 0.00 0.00 0.00 64 1009.4
20260506050524 18 146 3.2 11.3 0.00 0.00 0.00 64 1009.4
20260506045025 18 264 1.6 9.7 0.00 0.00 0.00 64 1009.5
20260506044629 18 105 1.6 9.7 0.00 0.00 0.00 64 1009.5
20260506044026 18 161 3.2 12.9 0.00 0.00 0.00 63 1009.6
20260506043525 18 322 1.6 12.9 0.00 0.00 0.00 63 1009.5
20260506043037 18 114 3.2 12.9 0.00 0.00 0.00 63 1009.4
20260506042525 18 143 4.8 12.9 0.00 0.00 0.00 62 1009.4
20260506042025 18 158 1.6 20.9 0.00 0.00 0.00 63 1009.4
20260506041558 18 119 1.6 20.9 0.00 0.00 0.00 62 1009.4
20260506041030 18 104 3.2 19.3 0.00 0.00 0.00 62 1009.4
20260506040525 18 110 1.6 12.9 0.00 0.00 0.00 62 1009.3
20260506040043 18 272 4.8 12.9 0.00 0.00 0.00 62 1009.3
20260506035528 18 281 3.2 12.9 0.00 0.00 0.00 62 1009.3
20260506035025 18 333 1.6 11.3 0.00 0.00 0.00 62 1009.4
20260506034619 18 154 1.6 11.3 0.00 0.00 0.00 61 1009.3
20260506034026 18 271 1.6 20.9 0.00 0.00 0.00 61 1009.4
20260506033525 18 90 3.2 20.9 0.00 0.00 0.00 61 1009.3
20260506033039 18 78 3.2 11.3 0.00 0.00 0.00 61 1009.4
20260506032525 18 330 1.6 11.3 0.00 0.00 0.00 61 1009.3
20260506032025 18 214 1.6 12.9 0.00 0.00 0.00 61 1009.3
20260506031535 18 198 1.6 12.9 0.00 0.00 0.00 61 1009.3
20260506031026 18 150 3.2 6.4 0.00 0.00 0.00 61 1009.3
20260506030525 18 278 1.6 12.9 0.00 0.00 0.00 61 1009.4
20260506030044 18 292 1.6 12.9 0.00 0.00 0.00 61 1009.3
20260506025525 18 269 3.2 8.0 0.00 0.00 0.00 61 1009.3
20260506025025 18 175 0.0 17.7 0.00 0.00 0.00 60 1009.2
20260506024545 18 65 4.8 17.7 0.00 0.00 0.00 60 1009.3
20260506024025 18 267 1.6 14.5 0.00 0.00 0.00 60 1009.2
20260506023525 18 104 1.6 14.5 0.00 0.00 0.00 60 1009.3
20260506023101 18 115 3.2 14.5 0.00 0.00 0.00 59 1009.3
20260506022525 18 352 3.2 9.7 0.00 0.00 0.00 59 1009.3
20260506022026 18 102 1.6 9.7 0.00 0.00 0.00 59 1009.2
20260506021540 19 150 1.6 9.7 0.00 0.00 0.00 59 1009.4
20260506021026 19 119 3.2 9.7 0.00 0.00 0.00 58 1009.3
20260506020525 19 104 1.6 12.9 0.00 0.00 0.00 58 1009.1
20260506020042 19 76 3.2 17.7 0.00 0.00 0.00 58 1009.2
20260506015528 19 138 3.2 17.7 0.00 0.00 0.00 58 1009.2
20260506015029 19 0 0.0 6.4 0.00 0.00 0.00 58 1009.2
20260506014544 19 53 1.6 6.4 0.00 0.00 0.00 57 1009.2
20260506014024 19 99 1.6 6.4 0.00 0.00 0.00 57 1009.1
20260506013526 19 105 1.6 3.2 0.00 0.00 0.00 56 1009.1
20260506013043 19 0 0.0 4.8 0.00 0.00 0.00 58 1008.9
20260506012525 19 110 1.6 4.8 0.00 0.00 0.00 58 1008.8
20260506012026 19 107 0.0 4.8 0.00 0.00 0.00 58 1008.9
20260506011541 19 101 0.0 6.4 0.00 0.00 0.00 59 1008.8
20260506011025 19 126 1.6 9.7 0.00 0.00 0.00 59 1008.7
20260506010525 18 164 1.6 11.3 0.00 0.00 0.00 60 1008.7
20260506010050 18 128 1.6 11.3 0.00 0.00 0.00 63 1008.6
20260506005524 18 153 0.0 3.2 0.00 0.00 0.00 60 1008.6
20260506005025 18 107 0.0 3.2 0.00 0.00 0.00 61 1008.6
20260506004602 18 0 0.0 9.7 0.00 0.00 0.00 61 1008.6
20260506004023 19 108 0.0 9.7 0.00 0.00 0.00 61 1008.5
20260506003526 19 360 0.0 4.8 0.00 0.00 0.00 60 1008.5
20260506003056 19 153 0.0 3.2 0.00 0.00 0.00 59 1008.5
20260506002526 19 58 0.0 3.2 0.00 0.00 0.00 59 1008.4
20260506002023 19 0 0.0 3.2 0.00 0.00 0.00 59 1008.3
20260506001543 20 336 0.0 3.2 0.00 0.00 0.00 60 1008.3
20260506001027 20 336 0.0 3.2 0.00 0.00 0.00 59 1008.1
20260506000524 20 82 0.0 3.2 0.00 0.00 0.00 57 1008.1
20260506000046 20 113 0.0 4.8 0.00 0.00 0.00 57 1008.1
20260505235523 20 30 0.0 4.8 0.00 0.00 0.00 56 1008.0
20260505235023 20 90 0.0 4.8 0.00 0.00 0.00 56 1007.9
20260505234559 20 134 1.6 4.8 0.00 0.00 0.00 56 1007.8
20260505234029 21 327 0.0 4.8 0.00 0.00 0.00 55 1007.7
20260505233530 21 244 1.6 4.8 0.00 0.00 0.00 54 1007.7
20260505233045 21 0 1.6 6.4 0.00 0.00 0.00 53 1007.7
20260505232527 21 148 1.6 6.4 0.00 0.00 0.00 54 1007.6
20260505232024 21 79 1.6 9.7 0.00 0.00 0.00 54 1007.5
20260505231545 21 352 3.2 9.7 0.00 0.00 0.00 54 1007.5
20260505231024 21 321 1.6 8.0 0.00 0.00 0.00 54 1007.3
20260505230523 21 99 3.2 8.0 0.00 0.00 0.00 53 1007.2
20260505230045 21 161 1.6 6.4 0.00 0.00 0.00 53 1007.1
20260505225526 21 107 1.6 9.7 0.00 0.00 0.00 53 1007.1
20260505225023 22 132 1.6 14.5 0.00 0.00 0.00 53 1007.1
20260505224542 22 103 1.6 14.5 0.00 0.00 0.00 52 1007.1
20260505224023 22 144 3.2 12.9 0.00 0.00 0.00 52 1007.0
20260505223523 22 184 1.6 14.5 0.00 0.00 0.00 51 1006.9
20260505223039 22 103 3.2 14.5 0.00 0.00 0.00 51 1006.9
20260505222526 23 94 3.2 12.9 0.00 0.00 0.00 50 1006.8
20260505222024 23 182 3.2 12.9 0.00 0.00 0.00 50 1006.8
20260505221535 23 104 3.2 12.9 0.00 0.00 0.00 49 1006.8
20260505221024 23 211 3.2 9.7 0.00 0.00 0.00 48 1006.8
20260505220545 23 167 3.2 9.7 0.00 0.00 0.00 48 1006.8
20260505220057 24 107 1.6 17.7 0.00 0.00 0.00 49 1006.9
20260505215524 24 113 1.6 17.7 0.00 0.00 0.00 47 1006.8
20260505215024 25 101 4.8 17.7 0.00 0.00 0.00 44 1006.8
20260505214541 25 340 4.8 17.7 0.00 0.00 0.00 42 1006.8
20260505214023 25 104 3.2 9.7 0.00 0.00 0.00 43 1006.7
20260505213524 25 274 1.6 9.7 0.00 0.00 0.00 44 1006.7
20260505213039 25 325 1.6 12.9 0.00 0.00 0.00 44 1006.7
20260505212523 25 96 3.2 12.9 0.00 0.00 0.00 42 1006.8
20260505212023 25 321 3.2 12.9 0.00 0.00 0.00 42 1006.6
20260505211546 25 140 3.2 12.9 0.00 0.00 0.00 42 1006.4
20260505211026 26 265 4.8 14.5 0.00 0.00 0.00 40 1006.4
20260505210522 26 272 3.2 25.7 0.00 0.00 0.00 39 1006.3
20260505210045 26 270 6.4 25.7 0.00 0.00 0.00 40 1006.3
20260505205526 26 158 4.8 14.5 0.00 0.00 0.00 40 1006.4
20260505205025 26 201 4.8 14.5 0.00 0.00 0.00 41 1006.2
20260505204545 26 90 4.8 20.9 0.00 0.00 0.00 42 1006.3
20260505204024 26 239 6.4 25.7 0.00 0.00 0.00 40 1006.4
20260505203523 26 269 6.4 25.7 0.00 0.00 0.00 41 1006.5
20260505203042 26 89 3.2 27.4 0.00 0.00 0.00 41 1006.5
20260505202524 26 279 4.8 27.4 0.00 0.00 0.00 40 1006.7
20260505202022 26 219 6.4 19.3 0.00 0.00 0.00 39 1006.6
20260505201538 26 74 6.4 27.4 0.00 0.00 0.00 39 1006.6
20260505201026 26 254 3.2 27.4 0.00 0.00 0.00 41 1006.5
20260505200528 26 320 6.4 30.6 0.00 0.00 0.00 39 1006.7
20260505200037 26 91 4.8 30.6 0.00 0.00 0.00 39 1006.6
20260505195525 27 285 6.4 30.6 0.00 0.00 0.00 39 1006.7
20260505195025 26 294 3.2 24.1 0.00 0.00 0.00 41 1006.7
20260505194547 26 155 9.7 24.1 0.00 0.00 0.00 39 1006.8
20260505194024 26 138 6.4 22.5 0.00 0.00 0.00 40 1006.8
20260505193524 26 110 4.8 19.3 0.00 0.00 0.00 42 1006.7
20260505193047 26 153 4.8 19.3 0.00 0.00 0.00 39 1006.8
20260505192523 26 304 6.4 19.3 0.00 0.00 0.00 39 1006.8
20260505192023 27 115 4.8 19.3 0.00 0.00 0.00 40 1006.9
20260505191552 27 90 6.4 19.3 0.00 0.00 0.00 40 1006.8
20260505191027 27 303 4.8 24.1 0.00 0.00 0.00 39 1006.8
20260505190523 27 224 6.4 24.1 0.00 0.00 0.00 40 1006.9
20260505190039 27 238 6.4 22.5 0.00 0.00 0.00 39 1006.9
20260505185526 27 212 4.8 19.3 0.00 0.00 0.00 41 1007.2
20260505185025 26 268 6.4 19.3 0.00 0.00 0.00 42 1007.2
20260505184538 26 133 6.4 19.3 0.00 0.00 0.00 38 1007.2
20260505184025 26 329 12.9 19.3 0.00 0.00 0.00 38 1007.2
20260505183525 27 116 8.0 17.7 0.00 0.00 0.00 37 1007.4
20260505183045 27 275 6.4 17.7 0.00 0.00 0.00 38 1007.3
20260505182523 27 306 6.4 17.7 0.00 0.00 0.00 38 1007.3
20260505182023 26 266 8.0 17.7 0.00 0.00 0.00 38 1007.3
20260505181543 26 299 6.4 19.3 0.00 0.00 0.00 38 1007.4
20260505181024 26 292 9.7 19.3 0.00 0.00 0.00 38 1007.2
20260505180526 26 108 6.4 30.6 0.00 0.00 0.00 38 1007.3
20260505180051 26 291 8.0 30.6 0.00 0.00 0.00 38 1007.3
20260505175523 26 271 4.8 22.5 0.00 0.00 0.00 39 1007.3
20260505175023 26 261 6.4 22.5 0.00 0.00 0.00 38 1007.3
20260505174551 26 135 6.4 25.7 0.00 0.00 0.00 36 1007.3
20260505174023 26 211 4.8 25.7 0.00 0.00 0.00 38 1007.4
20260505173525 26 117 8.0 25.7 0.00 0.00 0.00 38 1007.3
20260505173036 26 309 8.0 20.9 0.00 0.00 0.00 39 1007.5
20260505172529 26 277 4.8 19.3 0.00 0.00 0.00 39 1007.5
20260505172024 26 287 9.7 19.3 0.00 0.00 0.00 38 1007.6
20260505171543 26 279 3.2 19.3 0.00 0.00 0.00 39 1007.7
20260505171024 26 306 4.8 19.3 0.00 0.00 0.00 40 1007.9
20260505170523 26 271 6.4 14.5 0.00 0.00 0.00 40 1008.1
20260505170100 26 109 3.2 14.5 0.00 0.00 0.00 43 1008.1
20260505165528 26 148 4.8 17.7 0.00 0.00 0.00 41 1008.2
20260505165023 26 248 4.8 17.7 0.00 0.00 0.00 41 1008.2
20260505164539 25 128 3.2 16.1 0.00 0.00 0.00 43 1008.3
20260505164026 25 44 3.2 16.1 0.00 0.00 0.00 44 1008.4
20260505163525 25 276 3.2 16.1 0.00 0.00 0.00 44 1008.7
20260505163039 25 288 8.0 14.5 0.00 0.00 0.00 45 1008.7
20260505162525 24 251 8.0 16.1 0.00 0.00 0.00 45 1008.8
20260505162023 24 264 8.0 16.1 0.00 0.00 0.00 44 1008.9
20260505161553 24 234 4.8 16.1 0.00 0.00 0.00 45 1008.9
20260505161023 24 245 6.4 16.1 0.00 0.00 0.00 45 1008.9
20260505160522 24 285 8.0 14.5 0.00 0.00 0.00 44 1009.0
20260505153055 23 294 3.2 14.5 0.00 0.00 0.00 47 1009.2
20260505152524 23 258 4.8 27.4 0.00 0.00 0.00 48 1009.1
20260505152024 23 276 4.8 27.4 0.00 0.00 0.00 48 1009.1
20260505151549 23 302 4.8 12.9 0.00 0.00 0.00 49 1009.1
20260505151025 23 253 4.8 16.1 0.00 0.00 0.00 51 1009.5
20260505150525 22 292 6.4 16.1 0.00 0.00 0.00 49 1009.4